Location: Bonn
(50.7330°N, 7.1000°E)
Time: 22:23:10
(UTC+02:00)

Iridium 67 - Visible Passes

Search period start: 18 August 2017 00:00
Search period end: 28 August 2017 00:00
Orbit: 776 x 779 km, 86.4° (Epoch: 18 August)

Date Brightness Start Highest point End Pass type
(mag) Time Alt. Az. Time Alt. Az. Time Alt. Az.
18 Aug 6.5 03:57:35 10° N 04:02:38 46° E 04:07:38 10° SSE visible
18 Aug 6.5 05:38:44 10° NNW 05:43:08 28° W 05:47:31 10° SW visible
19 Aug 7.3 03:24:22 10° NNE 03:28:52 28° ENE 03:33:20 10° SE visible
19 Aug 5.9 05:04:50 10° NNW 05:09:49 46° W 05:14:46 10° SSW visible
20 Aug 7.9 02:51:29 10° NNE 02:54:59 18° ENE 02:58:27 10° ESE visible
20 Aug 5.5 04:31:08 10° N 04:36:22 78° W 04:41:05 13° S visible
21 Aug 8.3 02:19:46 10° NE 02:20:56 11° ENE 02:22:08 10° ENE visible
21 Aug 5.9 03:57:37 10° N 04:02:49 63° E 04:07:06 15° SSE visible
21 Aug 6.9 05:39:14 10° NNW 05:43:04 21° WNW 05:46:53 10° SW visible
22 Aug 6.8 03:24:16 10° N 03:29:08 38° ENE 03:33:09 14° SE visible
22 Aug 6.3 05:05:08 10° NNW 05:09:49 34° W 05:13:35 15° SW visible
23 Aug 7.5 02:51:10 10° NNE 02:55:20 23° ENE 02:59:14 11° ESE visible
23 Aug 5.6 04:31:20 10° N 04:36:27 57° W 04:39:40 22° SSW visible
24 Aug 8.0 02:18:31 10° NNE 02:21:23 15° ENE 02:24:15 10° E visible
24 Aug 5.5 03:57:42 10° N 04:02:58 86° E 04:05:47 28° S visible
24 Aug 7.2 05:39:57 10° NW 05:42:57 16° WNW 05:45:57 10° WSW visible
25 Aug 6.2 03:24:15 10° N 03:29:22 51° E 03:31:55 28° SE visible
25 Aug 6.7 05:05:33 10° NNW 05:09:47 25° W 05:12:21 17° WSW visible
26 Aug 7.0 02:50:59 10° NNE 02:55:38 31° ENE 02:58:05 21° ESE visible
26 Aug 6.0 04:31:35 10° NNW 04:36:29 42° W 04:38:31 29° SW visible
27 Aug 7.7 02:18:01 10° NNE 02:21:47 20° ENE 02:24:15 14° ESE visible
27 Aug 5.5 03:57:51 10° N 04:03:04 70° W 04:04:42 44° SSW visible
27 Aug 7.5 05:41:15 10° NW 05:42:48 11° WNW 05:44:21 10° W visible
